�N����,����,�~����,�C��,���x,�C��,����,���ϕ���,�ő�u�ԕ���,�ő厞����,���˗�,�I�_���x,�n�����x,�ő啗���N��,DTYPE
"18/07/04","00:10",0.0,24.0,91.5,997.9,297.1,0.8,1.9,317.5,0.00,22.6,24.8,"00:01:28",1
"18/07/04","00:20",0.0,23.9,91.4,997.7,294.7,0.8,1.3,320.4,0.00,22.5,24.6,"00:18:16",1
"18/07/04","00:30",0.0,23.9,91.8,997.4,318.5,1.2,1.8,329.5,0.00,22.5,24.7,"00:21:36",1
"18/07/04","00:40",0.0,23.9,92.1,997.2,304.9,1.0,1.4,335.9,0.00,22.6,24.5,"00:34:48",1
"18/07/04","00:50",0.0,23.8,92.1,997.4,298.1,0.7,1.2,310.6,0.00,22.5,24.8,"00:40:02",1
"18/07/04","01:00",0.0,23.8,92.5,997.2,313.1,1.0,1.8,332.5,0.00,22.6,24.7,"00:55:12",1
"18/07/04","01:10",0.0,23.9,92.4,996.7,289.6,0.7,1.3,323.6,0.00,22.6,24.7,"01:01:04",1
"18/07/04","01:20",0.0,23.8,92.5,996.7,297.9,0.8,1.2,325.9,0.00,22.6,24.5,"01:12:56",1
"18/07/04","01:30",0.0,23.8,92.6,996.7,296.7,0.8,1.4,326.6,0.00,22.6,24.8,"01:29:20",1
"18/07/04","01:40",0.0,23.7,92.7,996.5,291.9,1.1,1.7,336.6,0.00,22.5,24.7,"01:30:40",1
"18/07/04","01:50",0.0,23.6,92.9,996.7,295.4,1.1,2.0,319.1,0.00,22.4,24.5,"01:43:44",1
"18/07/04","02:00",0.0,23.7,92.9,996.5,300.9,1.1,2.1,314.5,0.00,22.5,24.5,"01:53:28",1
"18/07/04","02:10",0.0,23.7,93.1,996.7,281.7,0.8,1.3,315.1,0.00,22.6,24.5,"02:00:48",1
"18/07/04","02:20",0.0,23.8,93.1,996.5,294.7,0.8,1.8,312.1,0.00,22.7,24.4,"02:13:20",1
"18/07/04","02:30",0.0,23.9,93.1,996.5,309.5,1.1,1.8,316.1,0.00,22.8,24.6,"02:25:52",1
"18/07/04","02:40",0.0,23.9,93.0,996.7,295.9,0.7,1.3,310.2,0.00,22.7,24.4,"02:32:16",1
"18/07/04","02:50",0.0,24.0,92.9,996.7,288.5,0.8,1.7,328.7,0.00,22.8,24.3,"02:46:08",1
"18/07/04","03:00",0.0,24.0,92.9,996.5,277.7,0.8,1.6,322.3,0.00,22.8,24.5,"02:54:48",1
"18/07/04","03:10",0.0,24.1,92.8,996.7,290.1,1.0,1.9,254.6,0.00,22.9,24.6,"03:08:24",1
"18/07/04","03:20",0.0,24.2,92.7,996.5,312.9,0.7,1.4,322.7,0.00,23.0,24.6,"03:16:16",1
"18/07/04","03:30",0.0,24.2,92.5,996.7,283.0,0.7,1.6,246.3,0.00,22.9,24.4,"03:26:24",1
"18/07/04","03:40",0.0,24.2,92.6,996.7,301.1,0.8,1.7,320.2,0.00,23.0,24.4,"03:36:00",1
"18/07/04","03:50",0.0,24.3,92.6,996.3,321.0,0.3,1.1,199.5,0.00,23.1,24.5,"03:40:32",1
"18/07/04","04:00",0.0,24.2,92.7,996.3,302.1,0.7,1.3,327.5,0.00,23.0,24.3,"03:59:20",1
"18/07/04","04:10",0.0,24.2,92.7,996.5,295.9,0.8,1.6,328.3,0.00,23.0,24.2,"04:09:04",1
"18/07/04","04:20",0.0,24.2,92.7,996.3,284.2,0.8,1.7,300.5,0.00,23.0,24.3,"04:15:12",1
"18/07/04","04:30",0.0,24.2,92.6,996.0,277.9,0.7,1.4,326.4,0.00,23.0,24.5,"04:23:52",1
"18/07/04","04:40",0.0,24.2,92.6,996.5,293.3,0.6,1.1,320.5,0.00,23.0,24.2,"04:30:48",1
"18/07/04","04:50",0.0,24.2,92.7,996.3,311.4,0.3,1.2,338.1,0.00,23.0,24.2,"04:43:20",1
"18/07/04","05:00",0.0,24.3,92.8,996.0,324.7,0.8,1.7,357.1,0.00,23.1,24.5,"04:54:56",1
"18/07/04","05:10",0.0,24.2,92.8,996.0,287.0,0.6,1.1,327.0,0.00,23.0,24.3,"05:00:16",1
"18/07/04","05:20",0.0,24.1,93.0,996.3,294.7,0.7,1.8,344.3,0.00,22.9,24.3,"05:19:44",1
"18/07/04","05:30",0.0,24.2,93.2,996.3,335.1,1.1,2.2,335.5,0.00,23.1,24.3,"05:23:36",1
"18/07/04","05:40",0.0,24.2,93.2,996.0,322.8,1.2,2.0,312.3,0.00,23.1,24.3,"05:32:16",1
"18/07/04","05:50",0.0,24.2,93.3,995.8,316.5,0.7,1.4,327.4,0.00,23.1,24.2,"05:44:24",1
"18/07/04","06:00",0.0,24.2,93.2,996.0,295.9,1.2,1.9,238.1,0.00,23.1,24.4,"05:57:52",1
"18/07/04","06:10",0.0,24.2,93.1,996.0,311.0,0.6,1.7,341.8,0.00,23.1,24.3,"06:05:04",1
"18/07/04","06:20",0.0,24.3,93.1,996.0,270.6,0.7,1.1,236.3,0.00,23.2,24.2,"06:14:48",1
"18/07/04","06:30",0.0,24.3,93.0,996.0,312.9,1.0,1.9,335.8,0.00,23.1,24.3,"06:28:16",1
"18/07/04","06:40",0.0,24.4,93.1,995.8,316.1,0.8,1.6,322.5,0.00,23.3,24.2,"06:30:48",1
"18/07/04","06:50",0.0,24.5,93.0,995.8,317.8,0.6,1.1,337.4,0.00,23.3,24.2,"06:47:52",1
"18/07/04","07:00",0.0,24.7,93.4,996.0,306.2,0.8,1.7,315.7,0.00,23.6,24.2,"06:53:52",1
"18/07/04","07:10",0.0,24.9,93.4,996.3,315.5,0.7,1.4,331.6,0.03,23.8,24.3,"07:01:20",1
"18/07/04","07:20",0.0,25.0,93.0,996.0,303.0,0.7,1.3,316.9,0.02,23.8,24.3,"07:16:40",1
"18/07/04","07:30",0.0,25.2,92.6,995.8,306.2,1.0,1.7,334.9,0.06,24.0,24.4,"07:28:08",1
"18/07/04","07:40",0.0,25.5,92.5,996.3,321.0,1.2,1.7,333.2,0.04,24.2,24.5,"07:34:24",1
"18/07/04","07:50",0.0,25.6,91.9,996.0,300.3,0.5,0.9,338.4,0.01,24.2,24.5,"07:41:28",1
"18/07/04","08:00",0.0,25.6,91.8,996.3,308.4,0.8,1.3,340.3,0.01,24.2,24.3,"07:59:44",1
"18/07/04","08:10",0.0,25.7,92.1,995.6,348.2,0.8,1.6,349.7,0.04,24.4,24.3,"08:06:40",1
"18/07/04","08:20",0.0,25.6,91.8,995.6,324.3,1.2,1.8,331.8,0.02,24.2,24.3,"08:10:48",1
"18/07/04","08:30",0.0,25.8,91.6,995.6,306.8,0.8,1.4,335.6,0.04,24.4,24.5,"08:22:56",1
"18/07/04","08:40",0.0,25.8,91.6,995.8,315.1,1.1,2.0,343.9,0.04,24.4,24.4,"08:32:32",1
"18/07/04","08:50",0.0,25.9,91.3,996.0,331.1,1.1,2.0,339.1,0.05,24.4,24.3,"08:47:52",1
"18/07/04","09:00",0.0,25.7,91.1,995.8,325.9,1.1,1.8,334.0,0.02,24.2,24.5,"08:50:16",1
"18/07/04","09:10",0.2,25.9,91.1,995.6,325.4,1.2,2.2,304.1,0.06,24.4,24.6,"09:01:52",1
"18/07/04","09:20",0.4,25.7,90.6,995.8,327.1,0.8,2.0,343.5,0.04,24.1,24.5,"09:14:00",1
"18/07/04","09:30",0.6,25.6,91.3,995.6,342.1,0.7,1.7,341.0,0.05,24.1,24.5,"09:23:04",1
"18/07/04","09:40",0.2,25.7,90.4,995.3,14.1,0.5,2.1,20.1,0.07,24.0,24.5,"09:34:56",1
"18/07/04","09:50",0.2,25.7,91.2,995.6,352.4,0.5,1.0,56.7,0.02,24.2,24.6,"09:42:08",1
"18/07/04","10:00",0.4,25.6,91.5,995.6,349.4,0.6,1.7,233.4,0.02,24.2,24.5,"09:53:12",1
"18/07/04","10:10",0.2,25.7,91.7,995.8,16.1,0.6,1.3,8.4,0.07,24.3,24.5,"10:09:20",1
"18/07/04","10:20",0.4,25.2,91.3,996.0,153.0,1.3,5.1,197.8,0.03,23.7,24.8,"10:16:32",1
"18/07/04","10:30",0.4,25.5,91.0,995.8,176.9,1.2,3.6,125.2,0.11,24.0,24.7,"10:29:36",1
"18/07/04","10:40",0.2,25.7,91.2,995.6,183.2,1.0,2.4,213.9,0.07,24.2,24.5,"10:35:20",1
"18/07/04","10:50",0.2,25.7,90.9,995.6,163.0,0.6,1.4,129.2,0.05,24.1,24.9,"10:42:48",1
"18/07/04","11:00",1.6,25.6,91.1,995.8,180.6,0.7,2.4,226.3,0.02,24.1,24.7,"10:54:40",1
"18/07/04","11:10",0.4,25.6,91.3,995.8,243.2,0.7,3.9,216.0,0.03,24.1,24.7,"11:09:44",1
"18/07/04","11:20",0.6,25.4,91.0,996.0,190.5,2.6,5.2,179.4,0.08,23.9,24.6,"11:19:54",1
"18/07/04","11:30",0.2,25.6,90.8,996.0,186.3,2.6,4.5,213.1,0.15,24.0,24.9,"11:25:44",1
"18/07/04","11:40",0.2,25.9,89.7,995.8,186.1,2.7,7.0,205.5,0.11,24.1,24.7,"11:38:40",1
"18/07/04","11:50",0.0,26.0,88.5,995.8,193.1,2.1,3.5,194.3,0.07,24.0,24.9,"11:40:56",1
"18/07/04","12:00",0.0,26.0,89.0,995.6,186.6,1.8,3.9,184.5,0.10,24.1,24.9,"11:55:12",1
"18/07/04","12:10",0.2,26.0,89.2,995.3,175.9,1.8,4.1,206.7,0.13,24.1,24.8,"12:03:04",1
"18/07/04","12:20",0.0,26.4,88.6,995.6,194.1,1.7,4.9,197.4,0.15,24.4,24.9,"12:14:08",1
"18/07/04","12:30",0.4,26.5,88.6,995.1,197.0,1.3,3.5,221.1,0.16,24.5,25.0,"12:20:02",1
"18/07/04","12:40",0.0,26.9,87.4,995.1,204.0,1.8,4.8,222.5,0.17,24.7,25.0,"12:32:24",1
"18/07/04","12:50",0.0,27.0,84.8,995.1,201.6,2.2,8.5,200.6,0.13,24.3,24.9,"12:40:02",1
"18/07/04","13:00",0.0,27.3,82.8,995.3,229.7,2.0,3.7,159.6,0.16,24.2,24.9,"12:50:32",1
"18/07/04","13:10",0.0,27.4,81.3,995.1,232.5,1.7,4.7,305.1,0.09,24.0,25.0,"13:05:20",1
"18/07/04","13:20",0.0,27.7,80.8,995.3,240.8,2.5,5.5,335.2,0.15,24.1,25.0,"13:14:32",1
"18/07/04","13:30",0.0,27.9,79.2,995.1,252.0,2.0,4.4,356.3,0.12,24.0,25.0,"13:27:04",1
"18/07/04","13:40",0.4,27.1,83.5,995.1,217.8,1.5,3.7,224.8,0.11,24.1,25.3,"13:35:44",1
"18/07/04","13:50",0.0,27.0,85.9,994.8,128.5,0.6,2.2,90.1,0.09,24.5,25.2,"13:42:48",1
"18/07/04","14:00",0.0,27.1,83.5,995.3,217.6,2.2,4.8,226.8,0.11,24.1,25.2,"13:53:28",1
"18/07/04","14:10",0.0,27.5,82.9,995.1,207.2,1.2,4.5,231.4,0.15,24.4,25.2,"14:07:44",1
"18/07/04","14:20",0.0,27.4,82.4,995.1,220.3,1.5,4.4,179.0,0.11,24.2,25.1,"14:19:28",1
"18/07/04","14:30",0.0,27.4,82.3,994.8,206.5,1.8,5.1,235.4,0.13,24.2,25.3,"14:21:28",1
"18/07/04","14:40",0.4,27.0,83.6,995.1,202.5,2.7,6.2,193.5,0.09,24.0,25.4,"14:30:40",1
"18/07/04","14:50",1.8,26.6,84.8,994.8,214.5,1.6,4.4,181.4,0.04,23.9,25.5,"14:40:32",1
"18/07/04","15:00",0.6,26.4,86.4,995.1,73.5,1.0,2.2,324.0,0.05,24.0,25.4,"14:54:56",1
"18/07/04","15:10",0.2,26.6,87.9,995.1,217.0,1.5,4.4,206.1,0.11,24.5,25.2,"15:04:18",1
"18/07/04","15:20",0.2,26.8,86.7,994.8,222.4,2.1,4.4,217.4,0.20,24.4,25.2,"15:17:04",1
"18/07/04","15:30",0.0,26.9,85.0,994.8,202.2,2.3,5.9,172.0,0.15,24.2,25.2,"15:21:44",1
"18/07/04","15:40",0.0,26.9,84.8,995.1,226.7,1.7,4.5,232.0,0.12,24.2,25.4,"15:39:12",1
"18/07/04","15:50",0.0,27.0,83.5,995.3,244.2,2.2,6.3,218.7,0.07,24.0,25.4,"15:45:52",1
"18/07/04","16:00",0.0,27.2,83.1,995.3,223.0,2.3,8.2,214.1,0.08,24.1,25.4,"15:55:36",1
"18/07/04","16:10",0.0,27.1,82.4,995.3,254.9,1.8,3.7,174.1,0.04,23.9,25.2,"16:02:32",1
"18/07/04","16:20",0.0,27.0,82.9,995.3,242.8,1.6,6.8,204.9,0.02,23.9,25.2,"16:12:00",1
"18/07/04","16:30",0.6,26.7,83.6,995.6,231.7,2.3,6.3,226.7,0.05,23.7,25.4,"16:20:48",1
"18/07/04","16:40",0.4,26.3,85.4,995.1,227.9,1.5,4.1,190.6,0.03,23.7,25.4,"16:33:44",1
"18/07/04","16:50",0.0,26.3,85.2,995.3,216.5,2.5,5.5,208.2,0.03,23.7,25.3,"16:46:00",1
"18/07/04","17:00",0.4,26.3,85.6,995.6,229.7,2.1,5.0,219.6,0.01,23.7,25.2,"16:50:32",1
"18/07/04","17:10",0.0,26.2,86.1,995.1,283.2,2.3,6.2,338.4,0.02,23.7,25.2,"17:04:16",1
"18/07/04","17:20",0.0,26.4,85.4,995.3,235.4,1.7,4.4,224.0,0.03,23.8,25.3,"17:14:16",1
"18/07/04","17:30",0.0,26.8,83.8,995.6,242.8,2.5,8.6,210.4,0.02,23.9,25.2,"17:21:28",1
"18/07/04","17:40",0.0,26.9,83.1,995.6,239.9,2.3,10.2,222.0,0.03,23.8,25.1,"17:35:52",1
"18/07/04","17:50",0.0,27.0,82.4,995.6,236.2,2.5,5.6,203.0,0.03,23.8,25.1,"17:44:56",1
"18/07/04","18:00",0.0,27.0,82.0,996.0,249.6,1.7,4.9,218.4,0.02,23.7,25.1,"17:55:20",1
"18/07/04","18:10",0.0,27.0,81.6,995.6,258.7,2.3,6.2,236.1,0.01,23.6,25.1,"18:01:04",1
"18/07/04","18:20",0.0,27.0,81.8,995.8,247.6,2.0,6.6,221.2,0.00,23.7,25.1,"18:15:52",1
"18/07/04","18:30",0.0,26.9,82.1,996.0,267.9,1.6,5.7,227.6,0.00,23.6,25.1,"18:28:40",1
"18/07/04","18:40",0.0,27.0,81.9,996.0,247.0,1.5,2.8,248.7,0.00,23.7,25.2,"18:30:32",1
"18/07/04","18:50",0.0,27.1,81.6,996.0,231.5,2.5,8.6,208.1,0.00,23.7,25.0,"18:42:24",1
"18/07/04","19:00",0.0,27.0,81.8,996.3,272.4,1.0,2.6,13.1,0.00,23.7,24.8,"18:52:08",1
"18/07/04","19:10",0.0,27.0,81.9,996.0,271.5,1.2,3.5,144.4,0.00,23.7,24.9,"19:04:32",1
"18/07/04","19:20",0.0,27.0,82.0,996.3,259.7,1.6,3.6,229.7,0.00,23.7,25.0,"19:12:16",1
"18/07/04","19:30",0.0,27.1,81.7,996.3,240.8,2.3,6.4,180.6,0.00,23.7,25.1,"19:25:28",1
"18/07/04","19:40",0.0,26.9,82.1,996.0,254.5,1.1,2.6,239.2,0.00,23.6,24.8,"19:35:20",1
"18/07/04","19:50",0.0,26.9,82.1,996.3,257.7,0.8,3.1,226.4,0.00,23.6,25.1,"19:40:24",1
"18/07/04","20:00",0.0,26.9,82.2,996.7,258.5,1.6,4.8,227.2,0.00,23.6,24.9,"19:56:16",1
"18/07/04","20:10",0.0,26.8,82.4,996.5,237.0,1.5,3.3,242.4,0.00,23.6,25.0,"20:09:36",1
"18/07/04","20:20",0.0,26.8,82.2,996.5,235.3,1.6,5.6,192.3,0.00,23.5,24.9,"20:19:36",1
"18/07/04","20:30",0.0,26.9,82.1,997.0,256.2,1.7,3.7,203.0,0.00,23.6,24.8,"20:21:20",1
"18/07/04","20:40",0.0,26.8,82.5,997.2,236.1,1.7,4.2,181.7,0.00,23.6,24.8,"20:37:52",1
"18/07/04","20:50",0.0,26.7,82.8,997.2,222.2,1.5,2.8,226.1,0.00,23.6,24.6,"20:42:48",1
"18/07/04","21:00",0.0,26.8,82.6,997.2,243.6,2.2,5.1,226.9,0.00,23.6,24.7,"20:54:48",1
"18/07/04","21:10",0.0,26.7,82.6,997.4,247.9,1.8,3.1,233.0,0.00,23.5,24.7,"21:01:04",1
"18/07/04","21:20",0.0,26.6,82.8,997.4,280.2,1.2,2.6,353.8,0.00,23.5,24.8,"21:13:04",1
"18/07/04","21:30",0.0,26.6,82.7,997.4,281.7,1.7,4.0,237.5,0.00,23.5,24.7,"21:24:24",1
"18/07/04","21:40",0.0,26.6,83.0,997.4,278.4,1.5,3.4,234.5,0.00,23.5,24.7,"21:33:20",1
"18/07/04","21:50",0.0,26.6,83.1,997.9,270.7,1.2,2.2,308.6,0.00,23.5,24.9,"21:42:56",1
"18/07/04","22:00",0.0,26.6,83.1,997.9,273.0,1.2,3.1,299.8,0.00,23.5,24.6,"21:59:20",1
"18/07/04","22:10",0.0,26.6,82.9,997.4,276.4,2.1,4.8,213.4,0.00,23.5,24.6,"22:08:00",1
"18/07/04","22:20",0.0,26.6,83.0,998.2,267.7,1.5,3.7,231.4,0.00,23.5,24.5,"22:11:12",1
"18/07/04","22:30",0.0,26.6,83.4,997.9,262.8,1.8,4.7,216.1,0.00,23.6,24.6,"22:26:40",1
"18/07/04","22:40",0.0,26.5,83.8,997.9,259.7,1.2,3.4,234.5,0.00,23.6,24.7,"22:34:48",1
"18/07/04","22:50",0.0,26.4,84.3,997.9,284.1,1.2,3.5,312.2,0.00,23.6,24.5,"22:44:48",1
"18/07/04","23:00",0.0,26.3,84.6,997.9,252.9,1.3,3.2,325.1,0.00,23.5,24.6,"22:51:20",1
"18/07/04","23:10",0.0,26.2,84.9,997.9,241.9,1.2,2.8,215.7,0.00,23.5,24.5,"23:05:12",1
"18/07/04","23:20",0.0,26.2,85.0,997.9,243.6,1.7,4.7,239.0,0.00,23.5,24.6,"23:12:56",1
"18/07/04","23:30",0.0,26.1,85.3,997.9,253.3,1.3,2.7,232.9,0.00,23.5,24.6,"23:27:52",1
"18/07/04","23:40",0.0,26.1,85.5,997.9,240.0,1.3,3.3,225.8,0.00,23.5,24.4,"23:33:04",1
"18/07/04","23:50",0.0,26.0,85.8,997.4,249.1,1.0,2.9,229.0,0.00,23.5,24.6,"23:40:02",1
"18/07/04","24:00",0.0,25.9,86.4,997.9,236.1,0.6,1.9,213.3,0.00,23.5,24.5,"23:54:24",1
